2017-008BK

Last updated on Wed Mar 01 2017 00:15:03 GMT+0000 (Coordinated Universal Time)

1 42005U 17008BK 17059.81391611 .00001530 00000-0 70082-4 0 9999 2 42005 97.5105 121.4276 0006994 225.6374 134.4274 15.22013226 2045
UTC large
Height (km)
Speed (km/s)
/
Latitude / Longitude
Inclination (degrees)
Orbital Period (minutes)
Azimuth
Elevation
Range (km)
Doppler Factor

Next 0 passes for location: London (51.5072 / 0.1276)

Sorry there are no passes over London.